BeEagleSat
1 42736U 98067MR 18095.39482168 .00018375 00000-0 18430-3 0 9999
2 42736 51.6369 8.6144 0004479 317.8743 42.1907 15.65562681 49016
Atlantis
1 42737U 98067MS 18087.11387049 .13966215 12356-4 93055-3 0 9999
2 42737 51.6095 27.8979 0006293 234.7874 125.2564 16.40626348 47903
CAS-4B
1 42759U 17034B 18095.54500718 .00000204 00000-0 26165-4 0 9995
2 42759 43.0187 122.0454 0008868 2.6281 134.0334 15.09236339 44477
CAS-4A
1 42761U 17034D 18095.59883642 .00000152 00000-0 22956-4 0 9999
2 42761 43.0189 121.5639 0009366 5.4432 143.5702 15.09311942 44472
UCLSat
1 42765U 17036A 18095.22018669 .00001226 00000-0 57278-4 0 9992
2 42765 097.4090 156.2216 0011120 340.2870 019.7934 15.21648074044208
NIUSat
1 42766U 17036B 18095.40477153 .00000972 00000-0 47929-4 0 9999
2 42766 097.4092 155.8356 0014927 323.6404 036.3816 15.20226537043474
LituanicaSAT 2
1 42768U 17036D 18095.38318899 .00001934 00000-0 90042-4 0 9992
2 42768 097.4103 156.0271 0014707 326.3703 033.6598 15.21048521043491
Aalto 1
1 42775U 17036L 18095.12440302 .00000774 00000-0 38389-4 0 9994
2 42775 097.4085 155.7390 0013232 325.9935 034.0451 15.20609218043397
URSA MAIOR
1 42776U 17036M 18095.24608579 .00000859 00000-0 42166-4 0 9992
2 42776 097.4091 155.8954 0013040 325.8337 034.2058 15.20678886043419
Max Valier Sat
1 42778U 17036P 18095.82441058 .00000875 00000-0 42348-4 0 9995
2 42778 97.4113 156.7147 0011620 329.9695 30.0873 15.21140994 43508
Pegasus
1 42784U 17036V 18095.11719208 .00001037 00000-0 49179-4 0 9999
2 42784 097.4093 156.0638 0011664 340.1816 019.8965 15.21467166043407
NUDATSat
1 42787U 17036Y 18095.58705721 .00001542 00000-0 70608-4 0 9990
2 42787 097.4098 156.6630 0011122 338.5335 021.5433 15.21957895043323
SUCHAI 1
1 42788U 17036Z 18095.21806722 .00001365 00000-0 63306-4 0 9994
2 42788 097.4093 156.2323 0011250 340.1491 019.9305 15.21703890043499
SKCUBE
1 42789U 17036AA 18095.21604264 .00001271 00000-0 59216-4 0 9993
2 42789 097.4092 156.2305 0011090 340.1743 019.9061 15.21681613043410
VZLUSAT 1
1 42790U 17036AB 18095.11728647 .00001548 00000-0 70799-4 0 9992
2 42790 097.4095 156.2082 0010753 341.0760 019.0075 15.21984712043402
VENTA 1
1 42791U 17036AC 18095.52906015 .00001079 00000-0 50640-4 0 9997
2 42791 097.4091 156.5729 0010730 339.9943 020.0870 15.21743989043453
Robusta 1B
1 42792U 17036AD 18095.38864597 .00001261 00000-0 58530-4 0 9999
2 42792 097.4090 156.4488 0010689 341.0339 019.0497 15.21820758043453
D-SAT
1 42794U 17036AF 18095.22123147 .00000314 00000-0 32784-4 0 9994
2 42794 97.6005 152.6038 0127691 164.3828 196.1388 14.90815213 42857
BIRD-J
1 42820U 98067MU 18095.16914938 .00019266 00000-0 19994-3 0 9999
2 42820 051.6372 011.6126 0002111 218.7955 141.2888 15.64667681042436
BIRD-G
1 42821U 98067MV 18095.77529598 .00018349 00000-0 19334-3 0 9990
2 42821 51.6372 8.9107 0002051 226.4510 133.6315 15.64319182 42486
BIRD-M
1 42822U 98067MW 18095.19128893 .00020436 00000-0 21347-3 0 9997
2 42822 051.6373 011.7636 0001978 225.9354 134.1479 15.64458129042419
BIRD-B
1 42823U 98067MX 18095.76572286 .00018972 00000-0 19795-3 0 9996
2 42823 51.6377 8.8629 0004014 269.5039 90.5496 15.64539413 42488
BIRD-N
1 42824U 98067MY 18095.20696868 .00019365 00000-0 20324-3 0 9996
2 42824 051.6385 011.8932 0003909 267.8595 092.1952 15.64374555042411
TechnoSat
1 42829U 17042E 18095.87520578 .00000255 00000-0 31281-4 0 9995
2 42829 97.6025 0.9294 0015838 80.8690 279.4319 14.90790425 39565
TOMSK-TPU 120
1 42910U 98067MZ 18095.83016708 .00014578 00000-0 16893-3 0 9997
2 42910 51.6369 11.5158 0004967 300.0881 59.9620 15.62062796 36065
TANYUSHA 1
1 42911U 98067NA 18095.78831123 .00014719 00000-0 16622-3 0 9995
2 42911 51.6378 11.2681 0004411 293.2628 66.7902 15.62725729 36049
TANYUSHA 2
1 42912U 98067NB 18095.83153059 .00015505 00000-0 17775-3 0 9991
2 42912 51.6383 11.5226 0003926 310.3518 49.7133 15.62288486 36066
SFERA 2
1 42913U 98067NC 18095.36468386 .00033016 00000-0 30500-3 0 9990
2 42913 051.6360 009.8974 0002008 318.1032 041.9810 15.67248332036044
TNS 0-2
1 42914U 98067ND 18095.35369237 .00014627 00000-0 17107-3 0 9990
2 42914 51.6382 14.3644 0003926 300.1373 59.9231 15.61823873 35973
QIKCOM-1
1 42983U 98067NF 18095.39425038 .00003116 00000-0 51324-4 0 9993
2 42983 51.6450 20.4498 0003194 292.5831 164.6945 15.55732644 24882
AO-91
1 43017U 17073E 18095.36915245 .00000448 00000-0 40423-4 0 9994
2 43017 097.7036 029.5606 0260850 148.3801 213.3385 14.77961399020354
EcAMSat
1 43019U 98067NG 18095.74153903 .00004764 00000-0 73327-4 0 9999
2 43019 51.6412 18.4814 0004279 260.5879 99.4629 15.56279362107264
PICSAT
1 43132U 18004X 18095.22430886 .00001306 00000-0 59543-4 0 9992
2 43132 097.5417 157.6863 0009916 003.8313 356.2997 15.22430661012618
AO-92
1 43137U 18004AC 18095.61133739 .00000945 00000-0 43809-4 0 9993
2 43137 97.5414 158.0897 0009497 4.8525 355.2801 15.22540134 12667
TianYi 2
1 43155U 18008A 18095.82516919 .00001011 00000-0 65129-4 0 9999
2 43155 97.5287 171.5166 0019141 38.0075 72.7000 15.10431397 11567
TianYi 6
1 43158U 18008D 18095.86598071 .00000700 00000-0 47421-4 0 9994
2 43158 97.5304 171.4683 0015044 33.4455 70.8409 15.09601473 11544
S-Net G
1 43186U 18014G 18095.53784802 -.00000469 00000-0 -36221-4 0 9995
2 43186 97.7268 4.9286 0012473 37.1764 323.0319 14.96405677 9455
S-Net H
1 43187U 18014H 18092.99700504 .00000702 00000-0 66934-4 0 9992
2 43187 97.7316 2.4219 0012833 46.4086 314.6070 14.96418323 9079
S-Net J
1 43188U 18014J 18095.53777691 -.00000391 00000-0 -29378-4 0 9994
2 43188 97.7278 4.9309 0012364 37.5141 322.6965 14.96407946 9459
S-Net K
1 43189U 18014K 18095.33721298 -.00000360 00000-0 -26643-4 0 9993
2 43189 97.7281 4.7311 0012663 39.0702 321.1429 14.96407557 7979
FMN 1
1 43192U 18015A 18095.61754608 .00001879 00000-0 83788-4 0 9997
2 43192 097.3444 226.0717 0018424 042.2428 318.0231 15.22490723009471
Shaonian Xing
1 43199U 18015H 18095.57728233 .00001411 00000-0 61897-4 0 9993
2 43199 097.3217 225.9415 0019314 054.7408 305.5632 15.23443101009480
